Find the Weather for any City, State or Zip Code, or Country:


Mobile Weather


Questions? Comments?
Contact Greg


Winchester Trails
Subdivision Website


New! Stream Houston NOAA Weather Radio Here!


Current Maps

Tropical (Hurricane)

Temperature

Heat Index

Windchill

Humidity

Radar

Dew Point

Wind

Visibility

Visible Satellite

Satellite

Fronts

Jet Stream

Flight Rules


Forecast Maps

Temperature Forecast

Maximum Temperature Forecast

Minimum Temperature Forecast

Dewpoint Forecast

Prevalent Weather

12Hr Probability of Precip.

Sky Cover


Health Maps

Houston Pollen/Mold Report

UV Forecast

Air Quality

Peak Air Quality Index


Miscellaneous

NOAA Aviation Weather

NWS Houston/Galveston

National Weather Service (main page)

National Hurricane Center

Hurricane Archive

Harris Co. Flood Warning System

Harris Co. Storm Risk Calculator

U.S. Drought Monitor

TX Lake/Reservoir Data & Levels

Eric 'SciGuy' Berger Weather Blog

Dr. Jeff Masters Weather Blog

Houston Traffic

TxDOT Highway Conditions

Houston Electricity Outage Tracker

Galveston CruiseCam


This Station's Data

NOAA-Style Reports

Weather Detail

Daily Tabular Data


This Station's Position:
Lat. 29° 54' 14.18" N
Lon. 95° 34' 24.45" W
Elevation 112 ft (34.1 m)


Visit this station's partner in Cypress, 8sm west of here!


Weather Instruments:


Vantage Pro 2


Current Weather Conditions

This page refreshes automatically every 5 minutes and is best viewed at 1024x768 or higher resolution.
Powered by Ambient Weather Virtual Weather Station V14.01

Page last refreshed April 23, 2014 at 5:05 pm CDT (UTC -6)

Metric & Other Conversions for Current Observations
Current Temp27.9 °CHigh Temp30.4 °CLow Temp18.6 °C
Current Dew Point18.4 °CHeat Index28.9 °CWind Chill27.9 °C
Barometer1010.54 mbarBarometer757.9 mmHgBarometer14.66 psi
Density Altitude:  1740 ft (530.4 m)Pressure Altitude:  186 ft (56.7 m)
Barometer readings for a Standard Day (59.0 °F/15.0 °C @ sea level):  29.92" Hg, 1013.25 mbar, 757.83 mmHg, 14.70 psi


No Warnings, Watches, or Advisories for Harris and surrounding counties.


Local Radar Other Radar Graphics Local Satellite
Click for larger image WunderMap®

High Definition Radar (KHOU)

Regional Radar
Click for larger image
Radar & Satellite Graphics by Weather Underground




National Weather Service Forecast for: Jersey Village TX
Issued by: National Weather Service Houston, TX
Updated: 1:20 pm CDT Apr 23, 2014
 
Tonight

Increasing Clouds
Increasing
Clouds
Thursday

Partly Sunny
Partly
Sunny
Thursday
Night

Areas Fog
Areas
Fog
Friday

Areas Fog
Areas
Fog
Friday
Night

Mostly Cloudy
Mostly
Cloudy
Saturday

Slight Chc T-Storms. Chance for Measurable Precipitation 20%
Slight Chc
T-Storms
Saturday
Night

Slight Chc T-Storms. Chance for Measurable Precipitation 20%
Slight Chc
T-Storms
Sunday

Slight Chc T-Storms. Chance for Measurable Precipitation 20%
Slight Chc
T-Storms
Sunday
Night

Slight Chc T-Storms. Chance for Measurable Precipitation 20%
Slight Chc
T-Storms
Lo 64 °F Hi 84 °F Lo 65 °F Hi 85 °F Lo 67 °F Hi 84 °F Lo 68 °F Hi 84 °F Lo 69 °F

 

Tonight
 
Increasing clouds, with a low around 64. South wind 5 to 15 mph.
Thursday
 
Partly sunny, with a high near 84. South wind 5 to 15 mph.
Thursday Night
 
Areas of fog after 1am. Otherwise, mostly cloudy, with a low around 65. South wind 5 to 10 mph.
Friday
 
Areas of fog before 9am. Otherwise, partly sunny, with a high near 85. Southeast wind 5 to 10 mph.
Friday Night
 
Mostly cloudy, with a low around 67. South wind 5 to 10 mph.
Saturday
 
A 20 percent chance of showers and thunderstorms. Partly sunny, with a high near 84.
Saturday Night
 
A 20 percent chance of showers and thunderstorms. Partly cloudy, with a low around 68.
Sunday
 
A 20 percent chance of showers and thunderstorms. Mostly sunny, with a high near 84.
Sunday Night
 
A 20 percent chance of showers and thunderstorms. Mostly cloudy, with a low around 69.
Monday
 
A 30 percent chance of showers and thunderstorms. Partly sunny, with a high near 85.
Monday Night
 
Mostly cloudy, with a low around 59.
Tuesday
 
Mostly sunny, with a high near 78.
Tuesday Night
 
Mostly clear, with a low around 53.
Wednesday
 
Sunny, with a high near 72.

 

Forecast from NOAA-NWS for Jersey Village TX.

Follow this link for a current verbose area forecast discussion from the NWS.


Radar and Satellite Imagery


US Current Fronts w/Radar

Southcentral Infrared Satellite

US Jet Stream

Visible Satellite
The WunderMap is interactive - pan and zoom with your mouse.
WunderMap here requires Flash.
If accessing from an iOS device, you can download the Wundermap App from the App Store.
  
Click to go to WUnderground
Sea Surface Temp & Tropical System Map
Map Graphics by Weather Underground


Rainfall Information
Yesterday's Rain: 0 in
Last Rainfall:
Surrounding Area Rainfall Data
NOAA Avg. Rainfall For: Month to Date
(1971-2000)
Month to Date
(1981-2010)
Year to Date
(1971-2000)
Year to Date
(1981-2010)
Jersey Village: 2.5 in
(-1.61 in)
2.47 in
(-1.58 in)
13.21 in
(-5.02 in)
13.23 in
(-5.04 in)
Intercontinental (KIAH) 2.66 in 2.42 in 12.68 in 12.41 in
Hobby (KHOU) 2.59 in 2.39 in 13.04 in 12.67 in
NOTE:  The numbers in parenthesis under the Jersey Village data above indicate how far ahead (green) or behind (red) this station's rain total is compared to the NOAA 1971-2000 and 1981-2010 climate normals data for today's date (Apr 23).


Other Current Regional Observations (METARs)

(Ordered by straight-line statute mile distance from this weather station)

A Few More Observations/METARs of Interest to Greg


Weather Almanac

NOAA/NWS Daily Historical Weather Browser
Major SE Texas Weather Events

Records and Normals for Apr 23
Temperature Forecast Normal Record
High 85° 78° 89°
(1999)
Low 66°
59°
45°
(1998)
Highs & Lows Observed at This Station
  Today Yesterday For 4/2014 For 2014
High Temp 86.8°F at 2:46pm 86.8°F at 3:36pm 87.4°F on 4/1/14 87.4°F on 4/1/14
Low Temp 65.5°F at 7:06am 66.1°F at 3:19am 40.6°F on 4/15/14 22.6°F on 1/7/14
High Dew Point 68.4°F at 12:35pm 68.5°F at 1:19pm 71.5°F on 4/3/14 71.5°F on 4/3/14
Low Dew Point 63.3°F at 4:17am 60.4°F at 9:02pm 24.9°F on 4/15/14 8.4°F on 1/6/14
High Humidity 93% at 5:40am 91% at 3:23am 93% on 4/20/14 98% on 2/5/14
Low Humidity 46% at 2:46pm 48% at 5:47pm 28% on 4/8/14 25% on 1/17/14
High Heat Index 88.9°F at 2:43pm 89.7°F at 3:36pm 92.6°F on 4/1/14 92.6°F on 4/1/14
High Barometer 29.87in at 10:59am 29.90in at 11:29am 30.21in on 4/15/14 30.60in on 1/6/14
Low Barometer 29.72in at 4:59pm 29.77in at 6:29pm 29.54in on 4/6/14 29.53in on 3/11/14
High Wind Speed 9mph at 10:14am 9mph at 6:08am 23mph on 4/8/14 25mph on 3/16/14
High Wind Gust 9mph at 10:14am 9mph at 6:08am 23mph on 4/8/14 25mph on 3/12/14
Low Wind Chill 65.5°F at 7:06am 66.1°F at 3:19am 34.1°F on 4/15/14 11.5°F on 3/3/14

Sun & Moon
Sunrise:  6:45am Sunset:  7:53pm Moon Phase:
41%
Moonrise:  2:53am Moonset:  2:29pm
Star Chart...

 

Local Trend Graphs


MesoNet Local Weather Exchange® Network

Station ID

City 
(Click for Map Location)

Neighborhood 
(Click for History)
Last Update
(Date & Time)

Temp
 (°)

Dew
Point (°)
Humidity 
(%)
Wind 
(mph)
From
the
Gust
(mph) 
Pressure (in) Hourly
Rain (in)
KTXHOUST61 Houston Willow Point 04/23 16:59:08 86.4 30.0 13 4 SSW 6 29.74 0.00
KTXHOUST186 Houston Winchester Trails 04/23 17:00:03 82.6 65.0 55 0 South 0 29.84 0.00
KTXHOUST178 Houston Schroeder Oaks Village 04/23 17:00:02 85.8 67.0 53 3 SSW 5 29.79 0.00
KTXHOUST291 Houston Steeplechase 04/23 17:00:04 83.5 65.0 54 2 South 4 29.71 0.00
KTXHOUST216 Houston Cutten Green 04/23 16:59:45 84.4 67.0 56 6 SE 15 29.80 0.00
KTXHOUST232 Houston Rolling Fork 04/23 16:55:09 84.1 65.0 53 3 ESE 3 29.81 0.00
KTXHOUST349 Houston Champions Crossing 04/23 16:57:46 81.7 66.0 60 11 South 0 29.64 0.00
KTXHOUST218 Houston Woodland Trails West 04/23 16:59:38 86.4 67.0 52 4 SSE 4 29.82 0.00
KTXHOUST121 Houston Norchester, K5WH 04/23 16:59:46 87.8 60.0 40 4 SE 13 29.79 0.00
KTXHOUST170 Houston Champions Park 04/23 16:59:11 85.0 68.0 56 2

ENE 11 29.81 0.00
KTXHOUST342 Houston Lakewood Forest at Cypresswood 04/23 16:59:48 85.5 62.0 46 2 South 3 29.62 0.00
KTXHOUST233 Houston Woods of Wimbledon 04/23 17:00:02 84.7 66.0 54 13 East 13 29.83 0.00
KTXHOUST169 Houston Lakewood Forest 04/23 16:55:05 85.4 62.0 45 0 SSE 6 29.82 0.00
KTXSPRIN88 Spring Champions Woods 04/23 16:48:08 86.4 67.0 53 4 SE 0 29.52 0.00
KTXCYPRE42 Cypress Great Oaks 04/23 16:55:28 83.6 65.0 53 2 SW 2 29.82 0.00
KTXHOUST271 Houston Middlegate Village 04/23 17:00:03 83.3 66.0 57 4 SSW 6 29.64 0.00
KTXSPRIN69 Spring Colony Creek Village 04/23 16:55:09 84.3 67.0 57 5 SE 15 29.86 0.00
KTXCYPRE5 Cypress NW Houston (Wincrest Falls) 04/23 17:00:03 84.1 62.0 47 0 SSW 0 29.74 0.00
KTXCYPRE52 Cypress PWS KTXCYPRE52 04/23 17:00:01 86.1 62.0 45 3 SSE 10 29.31 0.00
KTXSPRIN9 Spring Wimbledon 04/23 17:00:03 82.0 64.0 54 4 SE 7 29.74 0.00
KTXTOMBA9 Tomball Spring Cypress/Eldridge 04/23 16:59:54 85.4 65.0 51 6 ESE 13 29.83 0.00
KTXCYPRE39 Cypress Longwood 04/23 16:55:22 83.7 65.0 53 2 ENE 5 29.81 0.00
KTXHOUST29 Houston Concord Colony - K5EBQ 04/23 16:51:35 84.8 68.0 58 0 SSE 0 29.84 0.00
KTXSPRIN83 Spring Memorial NorthWest 04/23 17:00:02 82.8 63.0 52 4 North 11 29.44 0.00
KTXHOUST265 Houston Spring Shadows 04/23 16:52:34 82.2 65.0 57 2 South 11 29.83 0.00
KTXHOUST159 Houston Copper Village 04/23 17:00:02 83.7 67.0 58 9 South 16 29.74 0.00
KTXSPRIN5 Spring Memorial Northwest 04/23 17:00:05 82.4 63.0 52 0 NNE 9 29.75 0.00
KTXHOUST200 Houston Binglewood 04/23 17:00:04 85.8 69.0 57 1 East 0 29.86 0.00
KTXHOUST329 Houston Spring Shadows Blk 1 04/23 17:00:03 90.9 62.0 39 1 ESE 1 29.85 0.00
KTXCYPRE26 Cypress Longwood - HepWX 04/23 17:00:01 83.8 60.0 45 1 ESE 6 29.65 0.00
KTXTOMBA10 Tomball Treeline 04/23 16:50:18 87.6 66.0 49 2 NE 8 29.83 0.00
KTXHOUST42 Houston Forest Pines - 77092 04/23 16:45:29 85.5 61.0 44 3 SW 0 29.69 0.00
KDWH Houston Hooks Official Station 04/23 16:53:00 81.0 65.0 58 12 SE --- 29.83 ---
KIAH Houston Intercontinental Official Station 04/23 16:53:00 82.0 64.0 54 16 SSE --- 29.85 ---
KMCJ Houston / Dunn Helistop Official Station 04/23 16:35:00 82.0 63.0 51 16 ESE --- 29.82 ---
KSGR Houston Hull Official Station 04/23 16:53:00 83.0 65.0 54 18 SSE --- 29.85 ---
KTXCYPRE54 Cypress Canyon Lakes West 04/23 17:00:02 89.2 64.0 43 10 SE 18 29.91 0.00
KTXHOUST197 Cypress Canyon Lakes West 04/23 17:00:02 84.4 66.0 54 6 NNE 14 29.76 0.00
KTXCYPRE65 Cypress Heritage Towne Lake 04/23 17:00:04 83.4 64.0 53 5 South 7 29.80 0.00
KTXCYPRE67 Cypress Prairie Bend - Bridgeland 84.6 84.6 64.0 50 2 SSW 2 29.62 0.00